Location: Newark
(44.6394°N, 22.2943°E)
Time: 07:50:40
(UTC+00:00)

BEESAT 2 - Visible Passes

Search period start: 03 December 2023 00:00
Search period end: 13 December 2023 00:00
Orbit: 358 x 383 km, 64.9° (Epoch: 02 December)

Date Brightness Start Highest point End Pass type
(mag) Time Alt. Az. Time Alt. Az. Time Alt. Az.
03 Dec ? 04:43:38 10° SW 04:46:42 69° NW 04:49:48 10° NNE visible
04 Dec ? 03:42:36 13° S 03:44:49 29° ESE 03:47:35 10° NE visible
04 Dec ? 05:17:03 10° W 05:19:22 19° NW 05:21:43 10° N visible
05 Dec ? 04:16:13 43° WSW 04:16:55 58° NW 04:19:58 10° NNE visible
06 Dec ? 03:16:42 14° ENE 03:16:42 14° ENE 03:17:16 10° NE visible
06 Dec ? 04:48:43 17° NW 04:49:01 17° NW 04:51:11 10° N visible
07 Dec ? 03:48:30 14° NNE 03:48:30 14° NNE 03:48:58 10° NNE visible
